Hourly Data Report for September 30, 2016

SHEARWATER RCS
NOVA SCOTIA

44°37'47.000" N
63°30'48.000" W
24.00 m
8205092
71264
AAW

Download Data

Hourly Data (September 2016)
Hourly Data Report for September 30, 2016
TIME Temp Definition
°C
Dew Point Definition
°C
Rel Hum Definition
%
Wind Dir Definition
10's deg

Wind Spd Definition
km/h
Visibility Definition
km
Stn Press Definition
kPa
Hmdx Definition


Wind Chill Definition


Weather Definition


00:00 7.0 5.3 89 33 7   102.97     LegendNANA
01:00 6.7 4.9 89 32 6   103.01     LegendNANA
02:00 6.5 5.0 90 32 5   103.06     LegendNANA
03:00 7.0 5.6 91 33 8   103.05     LegendNANA
04:00 6.9 5.4 91 33 8   103.02     LegendNANA
05:00 6.9 5.2 89 34 8   103.01     LegendNANA
06:00 7.0 5.1 88 34 10   103.02     LegendNANA
07:00 7.5 5.8 89 33 9   103.07     LegendNANA
08:00 9.4 6.5 82 34 9   103.07     LegendNANA
09:00 11.9 7.6 75 34 12   103.10     LegendNANA
10:00 14.2 6.9 62 2 10   103.08     LegendNANA
11:00 15.6 6.1 53 34 4   103.05     LegendNANA
12:00 16.7 5.0 46 34 6   103.03     LegendNANA
13:00 17.5 5.0 44 25 7   102.94     LegendNANA
14:00 17.9 2.8 37 32 9   102.88     LegendNANA
15:00 18.4 2.3 34 33 10   102.82     LegendNANA
16:00 17.8 1.8 34 32 10   102.81     LegendNANA
17:00 16.9 4.8 45 33 6   102.78     LegendNANA
18:00 15.0 5.7 53 36 6   102.80     LegendNANA
19:00 12.2 6.1 66 1 3   102.82     LegendNANA
20:00 10.5 6.2 75 32 4   102.85     LegendNANA
21:00 11.9 6.6 70 36 7   102.85     LegendNANA
22:00 10.1 5.9 75 23 3   102.86     LegendNANA
23:00 8.6 5.5 81 31 3   102.84     LegendNANA

Notes on Data Quality.

Legend

  • E = Estimated
  • M = Missing
  • NA = Not Available*
  • [empty] = Indicates an unobserved value
Date modified: